Regional Weather Roundup
Issued by NWS

Home | Current Version | Previous Version | Graphics & Text | Print | Product List | Glossary On
Versions: 1 2 3 4 5 6 7 8 9 10 11 12 13 14 15 16 17 18 19 20 21 22 23 24 25 26 27 28 29 30 31 32 33 34 35 36 37 38 39 40 41 42 43 44 45 46 47 48 49 50
000
ASUS43 KBIS 230702
RWRND

NORTH DAKOTA REGIONAL WEATHER ROUNDUP
NATIONAL WEATHER SERVICE BISMARCK ND
200 AM CDT SUN APR 23 2017

NOTE: "FAIR" INDICATES FEW OR NO CLOUDS BELOW 12,000 FEET WITH NO
SIGNIFICANT WEATHER AND/OR OBSTRUCTIONS TO VISIBILITY.


NDZ001>003-009>011-017-230800-
NORTHWEST NORTH DAKOTA

CITY           SKY/WX    TMP DP  RH WIND       PRES   REMARKS
WILLISTON      CLOUDY    38  32  79 E14G25    30.12S
MINOT          FLURRIES  32  26  78 NE14      30.20S
MINOT AFB      CLOUDY    31  27  83 E17       30.20S WCI  20
$$

NDZ018>021-031>035-040>046-230800-
SOUTHWEST NORTH DAKOTA

CITY           SKY/WX    TMP DP  RH WIND       PRES   REMARKS
BISMARCK       CLOUDY    37  32  82 E17G28    30.13F
DICKINSON      CLOUDY    35  32  88 NE17      30.04S
GARRISON         N/A     33  28  81 E16       30.14F
HETTINGER ARPT CLOUDY    40  37  89 E22G30    30.00F
$$

NDZ004>008-012>016-024-026-027-054-230800-
NORTHEAST NORTH DAKOTA

CITY           SKY/WX    TMP DP  RH WIND       PRES   REMARKS
GRAND FORKS    CLOUDY    34  24  67 N17       30.24S
GRND FRKS AFB  CLOUDY    32  20  63 NE15      30.25R
DEVILS LAKE    MIX PCPN  31  23  72 NE18      30.24R WCI  19
$$

NDZ022-023-025-028>030-036>039-047>053-230800-
SOUTHEAST NORTH DAKOTA

CITY           SKY/WX    TMP DP  RH WIND       PRES   REMARKS
FARGO          CLOUDY    36  33  89 N16       30.17F
JAMESTOWN      CLOUDY    33  29  85 NE20      30.17S
$$




USA.gov is the U.S. government's official web portal to all federal, state and local government web resources and services.